This demonstration page uses our WeatherBlox Daily Observations layout. Learn more.

Left ArrowRight Arrow

Hourly Observations for September 30, 2022

Temp ( °F °C ) Dew Point ( °F °C ) Humidity (%) Winds ( mph kmh ) Pressure ( in mb ) Visibility ( mi km ) Precip ( " mm )
12:56 am 00:56 Clear 55 12.8 46 7.8 72 72 ESE 6 9 30.05 1018 10 16 0.00 0.00
1:56 am 01:56 Clear 52 11.1 45 7.2 77 77 E 5 7 30.04 1017 10 16 0.00 0.00
2:56 am 02:56 Clear 54 12.2 46 7.8 74 74 SE 7 11 30.03 1017 10 16 0.00 0.00
3:56 am 03:56 Clear 53 11.7 45 7.2 74 74 SE 7 11 30.01 1016 10 16 0.00 0.00
4:56 am 04:56 Clear 53 11.7 45 7.2 74 74 SE 12 19 30.00 1016 10 16 0.00 0.00
5:56 am 05:56 Clear 55 12.8 45 7.2 69 69 SSE 10 17 30.00 1016 10 16 0.00 0.00
6:56 am 06:56 Clear 53 11.7 45 7.2 74 74 SE 7 11 30.01 1016 10 16 0.00 0.00
7:56 am 07:56 Sunny 51 10.6 44 6.7 77 77 SSE 7 11 30.02 1017 10 16 0.00 0.00
8:56 am 08:56 Sunny 58 14.4 45 7.2 62 62 SSE 14 22 30.01 1016 10 16 0.00 0.00
9:56 am 09:56 Sunny 64 17.8 46 7.8 52 52 S 16 26 29.99 1016 10 16 0.00 0.00
10:56 am 10:56 Sunny 69 20.6 47 8.3 45 45 S 18 30 29.99 1016 10 16 0.00 0.00
11:56 am 11:56 Sunny 72 22.2 48 8.9 43 43 S 14 22 29.98 1015 10 16 0.00 0.00
12:56 pm 12:56 Sunny 73 22.8 48 8.9 41 41 SSE 20 31 29.96 1015 10 16 0.00 0.00
1:56 pm 13:56 Sunny 76 24.4 49 9.4 39 39 SSE 13 20 29.95 1014 10 16 0.00 0.00
2:56 pm 14:56 Sunny 81 27.2 51 10.6 35 35 S 15 24 29.91 1013 10 16 0.00 0.00
3:56 pm 15:56 Sunny 83 28.3 51 10.6 33 33 SSE 21 33 29.90 1012 10 16 0.00 0.00
4:56 pm 16:56 Sunny 83 28.3 51 10.6 33 33 SSE 17 28 29.89 1012 10 16 0.00 0.00
5:56 pm 17:56 Sunny 81 27.2 51 10.6 35 35 SSE 22 35 29.88 1012 10 16 0.00 0.00
6:56 pm 18:56 Sunny 76 24.4 52 11.1 43 43 SE 18 30 29.90 1012 10 16 0.00 0.00
7:56 pm 19:56 Clear 73 22.8 50 10 44 44 SE 15 24 29.91 1013 10 16 0.00 0.00
8:56 pm 20:56 Clear 71 21.7 48 8.9 44 44 SE 17 28 29.92 1013 10 16 0.00 0.00
9:56 pm 21:56 Clear 68 20 47 8.3 47 47 SSE 16 26 29.93 1014 10 16 0.00 0.00
10:56 pm 22:56 Clear 67 19.4 47 8.3 49 49 SSE 15 24 29.93 1014 10 16 0.00 0.00
11:56 pm 23:56 Clear 67 19.4 46 7.8 47 47 S 15 24 29.94 1014 10 16 0.00 0.00

Powered by AerisWeather